Flag for Brazil Weather past 2 weeks in Joinville, Santa Catarina, Brazil

Now
63 °F

Light rain. Low clouds.


Feels Like: 63 °F
Forecast: 63 / 83 °F
Wind: 5 mph from Southeast

Location: Curitiba Aeroporto

Current Time: Oct 26, 2014 at 3:34:26 AM

Latest Report: Oct 26, 2014 at 3:00 AM


Visibility: 5 mi

Pressure: 30.04 "Hg

Humidity: 94%

Dew point: 61 °F

Location of JoinvilleLocation

Historic Weather in Joinville — Graph

°F

Joinville temperature yesterday

Maximum temperature yesterday: 77 °F (at 4:00 PM)
Minimum temperature yesterday: 61 °F (at 12:00 AM)
Average temperature yesterday: 66 °F

Past Weeks' High & Low Weather Summary

 TemperatureHumidityPressure
High91 °F (Oct 13, 2:00 PM)100% (Oct 11, 7:00 AM)30.30 "Hg (Oct 11, 7:00 AM)
Low52 °F (Oct 21, 7:00 AM)22% (Oct 16, 3:00 PM)29.92 "Hg (Oct 19, 3:00 PM)
Average66 °F80%30.11 "Hg
* Reported Oct 11 1:00 AM — Oct 26 2:00 AM, Joinville, Weather by CustomWeather, © 2014

Note: Actual official high and low records may vary slightly from our data, if they occured in-between our weather recording intervals... More about our weather records

Advertising

Joinville weather history for previous 24 hours

 ConditionsComfort  
Time TempWeatherWind HumidityBarometerVisibility
2:00 AM
Oct 26
63 °FLow clouds.6 mph94%30.04 "HgN/A
1:00 AM63 °FLow clouds.7 mph94%30.07 "Hg4 mi
12:00 AM64 °FLow clouds.8 mph88%30.04 "Hg4 mi
11:00 PM
Oct 25
64 °FLow clouds.7 mph94%30.04 "Hg4 mi
10:00 PM64 °FMostly cloudy.7 mph94%30.04 "HgN/A
9:00 PM64 °FPassing clouds.3 mph94%30.04 "HgN/A
8:00 PM64 °FPartly cloudy.6 mph94%30.04 "HgN/A
7:00 PM66 °FScattered clouds.6 mph88%30.01 "HgN/A
6:00 PM70 °FScattered clouds.6 mph73%29.98 "HgN/A
5:00 PM72 °FScattered clouds.6 mph73%30.01 "HgN/A
4:00 PM77 °FScattered clouds.7 mph57%30.01 "HgN/A
3:00 PM75 °FScattered clouds.9 mph61%30.04 "HgN/A
2:00 PM75 °FScattered clouds.7 mph57%30.04 "HgN/A
1:00 PM73 °FPassing clouds.10 mph57%30.07 "HgN/A
12:00 PM73 °FPassing clouds.12 mph50%30.07 "HgN/A
11:00 AM70 °FPassing clouds.13 mph64%30.09 "HgN/A
10:00 AM66 °FPartly sunny.6 mph73%30.09 "HgN/A
9:00 AM64 °FMostly cloudy.2 mph78%30.09 "HgN/A
8:00 AM63 °FMostly cloudy.3 mph83%30.07 "Hg5 mi
7:00 AM61 °FMore clouds than sun.3 mph88%30.04 "HgN/A
6:00 AM61 °FPartly cloudy.7 mph88%30.04 "HgN/A
5:00 AM61 °FPartly cloudy.6 mph94%30.04 "HgN/A
4:00 AM61 °FMostly cloudy.3 mph94%30.04 "HgN/A
3:00 AM61 °FMostly cloudy.3 mph94%30.04 "Hg4 mi
Weather by CustomWeather, © 2014

See weather overviewHow to use our weather pages